This is the latest recevied weather packets stored in our database for station/object SV9TNF-2. If no packets are shown the sender has not sent any weather packets the latest 10 day(s).
| Time | Temp. | Humidity | Pressure | Rain* | Wind** | Luminosity | Snow |
|---|---|---|---|---|---|---|---|
| 1777907859 | 18.89° C | 45% | 1025.1 hPa | 0 mm | 4.02 m/s, 266° | - | - |
| 1777907560 | 19.44° C | 48% | 1025.1 hPa | 0 mm | 4.02 m/s, 23° | - | - |
| 1777907260 | 19.44° C | 44% | 1025.1 hPa | 0 mm | 8.49 m/s, 325° | - | - |
| 1777906959 | 19.44° C | 38% | 1025.1 hPa | 0 mm | 4.92 m/s, 24° | - | - |
| 1777906659 | 19.44° C | 38% | 1025.4 hPa | 0 mm | 5.36 m/s, 151° | - | - |
| 1777906359 | 19.44° C | 38% | 1025.4 hPa | 0 mm | 2.68 m/s, 256° | - | - |
| 1777906059 | 18.89° C | 38% | 1025.4 hPa | 0 mm | 7.15 m/s, 340° | - | - |
| 1777905759 | 19.44° C | 41% | 1025.4 hPa | 0 mm | 4.02 m/s, 19° | - | - |
| 1777905459 | 19.44° C | 38% | 1025.4 hPa | 0 mm | 6.71 m/s, 0° | - | - |
| 1777905159 | 20° C | 39% | 1025.4 hPa | 0 mm | 5.81 m/s, 249° | - | - |
| 1777904859 | 20° C | 39% | 1025.4 hPa | 0 mm | 4.02 m/s, 292° | - | - |
| 1777904559 | 19.44° C | 37% | 1025.4 hPa | 0 mm | 4.02 m/s, 302° | - | - |
| 1777904258 | 19.44° C | 40% | 1025.4 hPa | 0 mm | 4.92 m/s, 328° | - | - |
| 1777903958 | 19.44° C | 38% | 1025.7 hPa | 0 mm | 4.02 m/s, 300° | - | - |
| 1777903658 | 19.44° C | 41% | 1025.7 hPa | 0 mm | 5.81 m/s, 359° | - | - |
| 1777903358 | 19.44° C | 41% | 1025.7 hPa | 0 mm | 4.02 m/s, 341° | - | - |
| 1777903059 | 19.44° C | 41% | 1025.7 hPa | 0 mm | 4.92 m/s, 327° | - | - |
| 1777902625 | 19.44° C | 42% | 1025.7 hPa | 0 mm | 5.81 m/s, 44° | - | - |
| 1777902325 | 19.44° C | 42% | 1025.7 hPa | 0 mm | 5.81 m/s, 308° | - | - |
| 1777902025 | 19.44° C | 41% | 1025.7 hPa | 0 mm | 4.47 m/s, 335° | - | - |
| 1777901725 | 20° C | 41% | 1025.7 hPa | 0 mm | 4.47 m/s, 89° | - | - |
| 1777901425 | 20° C | 39% | 1025.7 hPa | 0 mm | 3.13 m/s, 312° | - | - |
| 1777901125 | 19.44° C | 41% | 1025.7 hPa | 0 mm | 6.26 m/s, 342° | - | - |
| 1777900824 | 20° C | 38% | 1025.7 hPa | 0 mm | 2.68 m/s, 232° | - | - |
| 1777900524 | 19.44° C | 39% | 1025.7 hPa | 0 mm | 3.58 m/s, 186° | - | - |
* Rain latest hour (hover to see other rain measurements)
** Current wind speed in m/s (hover to see current wind gust speed)